Torna al catalogo

JASON 2

AttivoScienzaLEO
NORAD 33105·PAYLOAD·🇫🇷 France

Lanciato Jun 20, 2008 da Vandenberg Space Force Base

Loading…

Prossimi Passaggi (prossime 24 ore)

TLE

AggiornatoSource: Space-Track

Epoca: Sep 14, 2026, 12:18 UTC

1 33105U 08032A   26257.51311274 -.00000074  00000-0 -47778-4 0  9991
2 33105  66.0380 223.0051 0008036 269.3703 245.8460 12.87697700855203

Traccia JASON 2 in tempo reale con AllMySat

Download on the App Store